Time,TemperatureF,DewpointF,PressureIn,WindDirection,WindDirectionDegrees,WindSpeedMPH,WindSpeedGustMPH,Humidity,HourlyPrecipIn,Conditions,Clouds,dailyrainin,SoftwareType,DateUTC
2013-05-02 00:04:00,53.8,48.4,30.34,NNW,344,0.0,0.0,82,0.00,SCT,OVC,0.00,WeatherDisplay:10.37,2013-05-02 04:04:00,
2013-05-02 00:09:00,53.7,48.3,30.34,NNW,344,0.0,0.0,82,0.00,SCT,OVC,0.00,WeatherDisplay:10.37,2013-05-02 04:09:00,
2013-05-02 00:14:00,53.4,48.3,30.34,NNW,344,0.0,0.0,83,0.00,SCT,OVC,0.00,WeatherDisplay:10.37,2013-05-02 04:14:00,
2013-05-02 00:19:00,53.1,48.4,30.34,NNW,344,0.0,0.0,84,0.00,SCT,OVC,0.00,WeatherDisplay:10.37,2013-05-02 04:19:00,
2013-05-02 00:24:00,52.9,48.2,30.34,NNW,344,0.0,0.0,84,0.00,SCT,OVC,0.00,WeatherDisplay:10.37,2013-05-02 04:24:00,
2013-05-02 00:29:00,53.0,48.3,30.34,NNW,344,0.0,0.0,84,0.00,SCT,OVC,0.00,WeatherDisplay:10.37,2013-05-02 04:29:00,
2013-05-02 00:34:00,52.8,47.8,30.34,NNW,344,0.0,0.0,83,0.00,SCT,OVC,0.00,WeatherDisplay:10.37,2013-05-02 04:34:00,
2013-05-02 00:39:00,52.6,47.9,30.34,NNW,344,0.0,0.0,84,0.00,SCT,OVC,0.00,WeatherDisplay:10.37,2013-05-02 04:39:00,
2013-05-02 00:44:00,52.5,47.8,30.34,NNW,344,0.0,0.0,84,0.00,SCT,OVC,0.00,WeatherDisplay:10.37,2013-05-02 04:44:00,
2013-05-02 00:49:00,52.5,47.5,30.35,NNW,344,0.0,0.0,83,0.00,SCT,OVC,0.00,WeatherDisplay:10.37,2013-05-02 04:49:00,
2013-05-02 00:54:00,52.5,47.5,30.34,NNW,344,0.0,0.0,83,0.00,SCT,OVC,0.00,WeatherDisplay:10.37,2013-05-02 04:54:00,
2013-05-02 00:59:00,52.4,47.4,30.34,NNW,344,0.0,0.0,83,0.00,SCT,OVC,0.00,WeatherDisplay:10.37,2013-05-02 04:59:00,
2013-05-02 01:04:00,52.2,47.5,30.34,NNW,344,0.0,0.0,84,0.00,SCT,OVC,0.00,WeatherDisplay:10.37,2013-05-02 05:04:00,
2013-05-02 01:09:00,52.0,47.3,30.34,NNW,344,0.0,0.0,84,0.00,SCT,OVC,0.00,WeatherDisplay:10.37,2013-05-02 05:09:00,
2013-05-02 01:14:00,51.8,47.4,30.34,NNW,344,0.0,0.0,85,0.00,FEW,OVC,0.00,WeatherDisplay:10.37,2013-05-02 05:14:00,
2013-05-02 01:19:00,51.5,47.1,30.34,NNW,344,0.0,0.0,85,0.00,FEW,OVC,0.00,WeatherDisplay:10.37,2013-05-02 05:19:00,
2013-05-02 01:24:00,51.4,47.4,30.34,NNW,344,0.0,0.0,86,0.00,FEW,OVC,0.00,WeatherDisplay:10.37,2013-05-02 05:24:00,
2013-05-02 01:29:00,51.3,47.3,30.34,NNW,344,0.0,0.0,86,0.00,FEW,OVC,0.00,WeatherDisplay:10.37,2013-05-02 05:29:00,
2013-05-02 01:34:00,51.2,46.8,30.34,NNW,344,0.0,0.0,85,0.00,FEW,OVC,0.00,WeatherDisplay:10.37,2013-05-02 05:34:00,
2013-05-02 01:39:00,51.0,46.9,30.34,NNW,344,0.0,0.0,86,0.00,FEW,OVC,0.00,WeatherDisplay:10.37,2013-05-02 05:39:00,
2013-05-02 01:44:00,50.7,47.0,30.34,NNW,344,0.0,0.0,87,0.00,FEW,OVC,0.00,WeatherDisplay:10.37,2013-05-02 05:44:00,
2013-05-02 01:49:00,50.5,46.8,30.34,NNW,344,0.0,0.0,87,0.00,FEW,OVC,0.00,WeatherDisplay:10.37,2013-05-02 05:49:00,
2013-05-02 01:54:00,50.4,46.7,30.34,NNW,344,0.0,0.0,87,0.00,FEW,OVC,0.00,WeatherDisplay:10.37,2013-05-02 05:54:00,
2013-05-02 01:59:00,50.3,46.6,30.34,NNW,344,0.0,0.0,87,0.00,FEW,OVC,0.00,WeatherDisplay:10.37,2013-05-02 05:59:00,
2013-05-02 02:04:00,50.2,46.5,30.34,NNW,344,0.0,0.0,87,0.00,FEW,OVC,0.00,WeatherDisplay:10.37,2013-05-02 06:04:00,
2013-05-02 02:09:00,50.1,46.3,30.34,NNW,344,0.0,0.0,87,0.00,FEW,OVC,0.00,WeatherDisplay:10.37,2013-05-02 06:09:00,
2013-05-02 02:14:00,50.0,46.2,30.34,NNW,344,0.0,0.0,87,0.00,FEW,OVC,0.00,WeatherDisplay:10.37,2013-05-02 06:14:00,
2013-05-02 02:24:00,49.8,46.3,30.34,NNW,344,0.0,0.0,88,0.00,FEW,OVC,0.00,WeatherDisplay:10.37,2013-05-02 06:24:00,
2013-05-02 02:29:00,49.6,46.2,30.33,NNW,344,0.0,0.0,88,0.00,FEW,OVC,0.00,WeatherDisplay:10.37,2013-05-02 06:29:00,
2013-05-02 02:34:00,49.5,46.1,30.33,NNW,344,0.0,0.0,88,0.00,FEW,OVC,0.00,WeatherDisplay:10.37,2013-05-02 06:34:00,
2013-05-02 02:39:00,49.5,46.1,30.34,NNW,344,0.0,0.0,88,0.00,FEW,OVC,0.00,WeatherDisplay:10.37,2013-05-02 06:39:00,
2013-05-02 02:44:00,49.5,46.1,30.34,NNW,344,0.0,0.0,88,0.00,FEW,OVC,0.00,WeatherDisplay:10.37,2013-05-02 06:44:00,
2013-05-02 02:49:00,49.3,45.9,30.34,NNW,344,0.0,0.0,88,0.00,FEW,OVC,0.00,WeatherDisplay:10.37,2013-05-02 06:49:00,
2013-05-02 02:54:00,49.2,46.1,30.34,NNW,344,0.0,0.0,89,0.00,FEW,OVC,0.00,WeatherDisplay:10.37,2013-05-02 06:54:00,
2013-05-02 02:59:00,49.2,46.1,30.34,NNW,344,0.0,0.0,89,0.00,FEW,OVC,0.00,WeatherDisplay:10.37,2013-05-02 06:59:00,
2013-05-02 03:04:00,49.2,45.8,30.34,NNW,344,0.0,0.0,88,0.00,FEW,OVC,0.00,WeatherDisplay:10.37,2013-05-02 07:04:00,
2013-05-02 03:09:00,49.1,45.7,30.34,NNW,344,0.0,0.0,88,0.00,FEW,OVC,0.00,WeatherDisplay:10.37,2013-05-02 07:09:00,
2013-05-02 03:14:00,49.1,45.7,30.34,NNW,344,0.0,0.0,88,0.00,FEW,OVC,0.00,WeatherDisplay:10.37,2013-05-02 07:14:00,
2013-05-02 03:19:00,49.1,45.7,30.34,NNW,344,0.0,0.0,88,0.00,FEW,OVC,0.00,WeatherDisplay:10.37,2013-05-02 07:19:00,
2013-05-02 03:24:00,49.0,45.6,30.34,NNW,344,0.0,0.0,88,0.00,FEW,OVC,0.00,WeatherDisplay:10.37,2013-05-02 07:24:00,
2013-05-02 03:29:00,49.0,45.6,30.34,NNW,344,0.0,0.0,88,0.00,FEW,OVC,0.00,WeatherDisplay:10.37,2013-05-02 07:29:00,
2013-05-02 03:34:00,49.0,45.6,30.34,NNW,344,0.0,0.0,88,0.00,FEW,OVC,0.00,WeatherDisplay:10.37,2013-05-02 07:34:00,
2013-05-02 03:39:00,48.9,45.5,30.34,NNW,344,0.0,0.0,88,0.00,FEW,OVC,0.00,WeatherDisplay:10.37,2013-05-02 07:39:00,
2013-05-02 03:44:00,48.9,45.5,30.34,NNW,344,0.0,0.0,88,0.00,FEW,OVC,0.00,WeatherDisplay:10.37,2013-05-02 07:44:00,
2013-05-02 03:49:00,48.8,45.4,30.34,NNW,344,0.0,0.0,88,0.00,FEW,OVC,0.00,WeatherDisplay:10.37,2013-05-02 07:49:00,
2013-05-02 03:54:00,48.6,45.5,30.34,NNW,344,0.0,0.0,89,0.00,FEW,OVC,0.00,WeatherDisplay:10.37,2013-05-02 07:54:00,
2013-05-02 03:59:00,48.6,45.5,30.34,NNW,344,0.0,0.0,89,0.00,FEW,OVC,0.00,WeatherDisplay:10.37,2013-05-02 07:59:00,
2013-05-02 04:04:00,48.5,45.4,30.34,NNW,344,0.0,0.0,89,0.00,FEW,OVC,0.00,WeatherDisplay:10.37,2013-05-02 08:04:00,
2013-05-02 04:09:00,48.4,45.3,30.34,NNW,344,0.0,0.0,89,0.00,FEW,OVC,0.00,WeatherDisplay:10.37,2013-05-02 08:09:00,
2013-05-02 04:14:00,48.3,45.2,30.34,NNW,344,0.0,0.0,89,0.00,SKC,OVC,0.00,WeatherDisplay:10.37,2013-05-02 08:14:00,
2013-05-02 04:19:00,48.2,45.4,30.34,NNW,344,0.0,0.0,90,0.00,SKC,OVC,0.00,WeatherDisplay:10.37,2013-05-02 08:19:00,
2013-05-02 04:24:00,48.0,45.2,30.34,NNW,344,0.0,0.0,90,0.00,SKC,OVC,0.00,WeatherDisplay:10.37,2013-05-02 08:24:00,
2013-05-02 04:29:00,47.9,45.1,30.35,NNW,344,0.0,0.0,90,0.00,SKC,OVC,0.00,WeatherDisplay:10.37,2013-05-02 08:29:00,
2013-05-02 04:34:00,47.8,45.0,30.35,NNW,344,0.0,0.0,90,0.00,SKC,OVC,0.00,WeatherDisplay:10.37,2013-05-02 08:34:00,
2013-05-02 04:39:00,47.7,44.9,30.35,NNW,344,0.0,0.0,90,0.00,SKC,OVC,0.00,WeatherDisplay:10.37,2013-05-02 08:39:00,
2013-05-02 04:44:00,47.6,45.1,30.35,NNW,344,0.0,0.0,91,0.00,SKC,OVC,0.00,WeatherDisplay:10.37,2013-05-02 08:44:00,
2013-05-02 04:49:00,47.5,45.0,30.35,NNW,344,0.0,0.0,91,0.00,SKC,OVC,0.00,WeatherDisplay:10.37,2013-05-02 08:49:00,
2013-05-02 04:54:00,47.5,45.0,30.36,NNW,344,0.0,0.0,91,0.00,SKC,OVC,0.00,WeatherDisplay:10.37,2013-05-02 08:54:00,
2013-05-02 04:59:00,47.4,44.9,30.36,NNW,344,0.0,0.0,91,0.00,SKC,OVC,0.00,WeatherDisplay:10.37,2013-05-02 08:59:00,
2013-05-02 05:04:00,47.3,44.8,30.35,NNW,344,0.0,0.0,91,0.00,SKC,OVC,0.00,WeatherDisplay:10.37,2013-05-02 09:04:00,
2013-05-02 05:09:00,47.3,44.8,30.36,NNW,344,0.0,0.0,91,0.00,SKC,OVC,0.00,WeatherDisplay:10.37,2013-05-02 09:09:00,
2013-05-02 05:14:00,47.4,44.9,30.36,NNW,344,0.0,0.0,91,0.00,FEW,OVC,0.00,WeatherDisplay:10.37,2013-05-02 09:14:00,
2013-05-02 05:19:00,47.4,44.9,30.36,NNW,344,0.0,0.0,91,0.00,FEW,OVC,0.00,WeatherDisplay:10.37,2013-05-02 09:19:00,
2013-05-02 05:24:00,47.3,44.8,30.37,NNW,344,0.0,0.0,91,0.00,FEW,OVC,0.00,WeatherDisplay:10.37,2013-05-02 09:24:00,
2013-05-02 05:29:00,47.1,44.6,30.37,NNW,344,0.0,0.0,91,0.00,FEW,OVC,0.00,WeatherDisplay:10.37,2013-05-02 09:29:00,
2013-05-02 05:34:00,46.8,44.3,30.36,NNW,344,0.0,0.0,91,0.00,FEW,OVC,0.00,WeatherDisplay:10.37,2013-05-02 09:34:00,
2013-05-02 05:39:00,46.7,44.5,30.37,NNW,344,0.0,0.0,92,0.00,FEW,OVC,0.00,WeatherDisplay:10.37,2013-05-02 09:39:00,
2013-05-02 05:44:00,46.7,44.5,30.36,NNW,344,0.0,0.0,92,0.00,FEW,OVC,0.00,WeatherDisplay:10.37,2013-05-02 09:44:00,
2013-05-02 05:49:00,46.6,44.1,30.37,NNW,344,0.0,0.0,91,0.00,FEW,OVC,0.00,WeatherDisplay:10.37,2013-05-02 09:49:00,
2013-05-02 05:54:00,46.6,44.4,30.37,NNW,344,0.0,0.0,92,0.00,FEW,OVC,0.00,WeatherDisplay:10.37,2013-05-02 09:54:00,
2013-05-02 05:59:00,46.7,44.5,30.36,NNW,344,0.0,0.0,92,0.00,FEW,OVC,0.00,WeatherDisplay:10.37,2013-05-02 09:59:00,
2013-05-02 06:04:00,46.6,44.4,30.37,NNW,344,0.0,0.0,92,0.00,FEW,OVC,0.00,WeatherDisplay:10.37,2013-05-02 10:04:00,
2013-05-02 06:09:00,46.7,44.5,30.37,NNW,344,0.0,0.0,92,0.00,FEW,OVC,0.00,WeatherDisplay:10.37,2013-05-02 10:09:00,
2013-05-02 06:14:00,46.7,44.5,30.37,NNW,344,0.0,0.0,92,0.00,FEW,OVC,0.00,WeatherDisplay:10.37,2013-05-02 10:14:00,
2013-05-02 06:19:00,46.8,44.6,30.37,NNW,344,0.0,0.0,92,0.00,FEW,OVC,0.00,WeatherDisplay:10.37,2013-05-02 10:19:00,
2013-05-02 06:29:00,47.1,44.9,30.37,NNW,344,0.0,0.0,92,0.00,FEW,OVC,0.00,WeatherDisplay:10.37,2013-05-02 10:29:00,
2013-05-02 06:34:00,47.2,44.7,30.38,NNW,344,0.0,0.0,91,0.00,FEW,OVC,0.00,WeatherDisplay:10.37,2013-05-02 10:34:00,
2013-05-02 06:39:00,47.5,45.2,30.38,NNW,344,0.0,0.0,92,0.00,FEW,OVC,0.00,WeatherDisplay:10.37,2013-05-02 10:39:00,
2013-05-02 06:44:00,47.6,45.4,30.38,NNW,344,0.0,0.0,92,0.00,FEW,OVC,0.00,WeatherDisplay:10.37,2013-05-02 10:44:00,
2013-05-02 06:49:00,48.2,45.7,30.38,NNW,344,0.0,0.0,91,0.00,FEW,OVC,0.00,WeatherDisplay:10.37,2013-05-02 10:49:00,
2013-05-02 06:54:00,48.8,46.0,30.38,NNW,344,0.0,0.0,90,0.00,FEW,OVC,0.00,WeatherDisplay:10.37,2013-05-02 10:54:00,
2013-05-02 06:59:00,49.5,46.7,30.38,NNW,344,0.0,0.0,90,0.00,FEW,OVC,0.00,WeatherDisplay:10.37,2013-05-02 10:59:00,
2013-05-02 07:04:00,51.5,47.7,30.39,NNW,344,0.0,0.0,87,0.00,FEW,OVC,0.00,WeatherDisplay:10.37,2013-05-02 11:04:00,
2013-05-02 07:09:00,53.2,48.2,30.39,North,357,0.0,1.0,83,0.00,FEW,OVC,0.00,WeatherDisplay:10.37,2013-05-02 11:09:00,
2013-05-02 07:14:00,54.6,48.5,30.40,NE,37,0.0,2.0,80,0.00,BKN,OVC,0.00,WeatherDisplay:10.37,2013-05-02 11:14:00,
2013-05-02 07:19:00,55.2,48.8,30.40,ENE,60,0.0,1.0,79,0.00,BKN,OVC,0.00,WeatherDisplay:10.37,2013-05-02 11:19:00,
2013-05-02 07:29:00,55.9,48.8,30.39,NE,48,0.0,0.0,77,0.00,BKN,OVC,0.00,WeatherDisplay:10.37,2013-05-02 11:29:00,
2013-05-02 07:34:00,56.3,48.8,30.40,NE,48,0.0,0.0,76,0.00,BKN,OVC,0.00,WeatherDisplay:10.37,2013-05-02 11:34:00,
2013-05-02 07:39:00,56.4,48.6,30.40,NE,51,0.0,1.0,75,0.00,BKN,OVC,0.00,WeatherDisplay:10.37,2013-05-02 11:39:00,
2013-05-02 07:44:00,56.5,48.7,30.40,East,80,0.0,3.0,75,0.00,BKN,OVC,0.00,WeatherDisplay:10.37,2013-05-02 11:44:00,
2013-05-02 07:49:00,56.8,48.6,30.40,East,96,0.0,0.0,74,0.00,BKN,OVC,0.00,WeatherDisplay:10.37,2013-05-02 11:49:00,
2013-05-02 07:54:00,57.2,48.3,30.40,East,83,0.0,0.0,72,0.00,BKN,OVC,0.00,WeatherDisplay:10.37,2013-05-02 11:54:00,
2013-05-02 08:04:00,57.5,49.3,30.40,SSE,147,0.0,0.0,74,0.00,BKN,OVC,0.00,WeatherDisplay:10.37,2013-05-02 12:04:00,
2013-05-02 08:09:00,57.5,48.6,30.40,SE,137,0.0,0.0,72,0.00,BKN,OVC,0.00,WeatherDisplay:10.37,2013-05-02 12:09:00,
2013-05-02 08:14:00,57.7,48.0,30.40,East,91,0.0,0.0,70,0.00,BKN,OVC,0.00,WeatherDisplay:10.37,2013-05-02 12:14:00,
2013-05-02 08:19:00,57.9,48.5,30.40,ENE,57,0.0,0.0,71,0.00,BKN,OVC,0.00,WeatherDisplay:10.37,2013-05-02 12:19:00,
2013-05-02 08:24:00,58.1,48.4,30.40,NE,54,0.0,0.0,70,0.00,BKN,OVC,0.00,WeatherDisplay:10.37,2013-05-02 12:24:00,
2013-05-02 08:29:00,58.6,49.2,30.40,NE,54,0.0,0.0,71,0.00,BKN,OVC,0.00,WeatherDisplay:10.37,2013-05-02 12:29:00,
2013-05-02 08:34:00,58.9,49.5,30.40,NE,54,0.0,0.0,71,0.00,BKN,OVC,0.00,WeatherDisplay:10.37,2013-05-02 12:34:00,
2013-05-02 08:39:00,59.1,48.1,30.40,NE,54,0.0,0.0,67,0.00,BKN,OVC,0.00,WeatherDisplay:10.37,2013-05-02 12:39:00,
2013-05-02 08:44:00,59.3,48.7,30.40,East,79,0.0,0.0,68,0.00,BKN,OVC,0.00,WeatherDisplay:10.37,2013-05-02 12:44:00,
2013-05-02 08:49:00,59.9,48.9,30.40,SSE,162,0.0,0.0,67,0.00,BKN,OVC,0.00,WeatherDisplay:10.37,2013-05-02 12:49:00,
2013-05-02 08:54:00,60.4,48.6,30.40,SSE,164,0.0,0.0,65,0.00,BKN,OVC,0.00,WeatherDisplay:10.37,2013-05-02 12:54:00,
2013-05-02 08:59:00,60.2,48.4,30.40,SE,138,0.0,0.0,65,0.00,BKN,OVC,0.00,WeatherDisplay:10.37,2013-05-02 12:59:00,
2013-05-02 09:04:00,60.8,49.7,30.40,ESE,122,0.0,0.0,67,0.00,BKN,OVC,0.00,WeatherDisplay:10.37,2013-05-02 13:04:00,
2013-05-02 09:09:00,60.7,48.9,30.40,ESE,114,0.0,0.0,65,0.00,BKN,OVC,0.00,WeatherDisplay:10.37,2013-05-02 13:09:00,
2013-05-02 09:14:00,61.1,48.9,30.40,ESE,104,0.0,0.0,64,0.00,BKN,OVC,0.00,WeatherDisplay:10.37,2013-05-02 13:14:00,
2013-05-02 09:19:00,61.5,49.6,30.40,East,85,0.0,0.0,65,0.00,BKN,OVC,0.00,WeatherDisplay:10.37,2013-05-02 13:19:00,
2013-05-02 09:24:00,61.7,49.0,30.41,ENE,74,0.0,0.0,63,0.00,BKN,OVC,0.00,WeatherDisplay:10.37,2013-05-02 13:24:00,
2013-05-02 09:29:00,61.5,48.8,30.41,NE,54,0.0,0.0,63,0.00,BKN,OVC,0.00,WeatherDisplay:10.37,2013-05-02 13:29:00,
2013-05-02 09:39:00,62.4,48.8,30.41,NE,54,0.0,1.0,61,0.00,BKN,OVC,0.00,WeatherDisplay:10.37,2013-05-02 13:39:00,
2013-05-02 09:44:00,62.7,48.6,30.41,East,92,0.0,0.0,60,0.00,BKN,OVC,0.00,WeatherDisplay:10.37,2013-05-02 13:44:00,
2013-05-02 09:49:00,63.1,49.8,30.41,ESE,104,0.0,0.0,62,0.00,BKN,OVC,0.00,WeatherDisplay:10.37,2013-05-02 13:49:00,
2013-05-02 09:54:00,63.7,49.5,30.41,East,100,0.0,1.0,60,0.00,BKN,OVC,0.00,WeatherDisplay:10.37,2013-05-02 13:54:00,
2013-05-02 09:59:00,63.8,49.2,30.41,NE,50,1.0,3.0,59,0.00,BKN,OVC,0.00,WeatherDisplay:10.37,2013-05-02 13:59:00,
2013-05-02 10:04:00,64.4,50.2,30.41,NNE,13,0.0,3.0,60,0.00,BKN,OVC,0.00,WeatherDisplay:10.37,2013-05-02 14:04:00,
2013-05-02 10:09:00,64.8,49.7,30.41,NE,39,0.0,1.0,58,0.00,BKN,OVC,0.00,WeatherDisplay:10.37,2013-05-02 14:09:00,
2013-05-02 10:14:00,65.4,51.2,30.41,NE,50,0.0,1.0,60,0.00,OVC,OVC,0.00,WeatherDisplay:10.37,2013-05-02 14:14:00,
2013-05-02 10:19:00,66.9,50.2,30.41,NNE,16,0.0,3.0,55,0.00,OVC,OVC,0.00,WeatherDisplay:10.37,2013-05-02 14:19:00,
2013-05-02 10:24:00,67.4,50.6,30.41,North,353,1.0,3.0,55,0.00,OVC,OVC,0.00,WeatherDisplay:10.37,2013-05-02 14:24:00,
2013-05-02 10:34:00,69.4,52.0,30.41,SSE,151,0.0,0.0,54,0.00,OVC,OVC,0.00,WeatherDisplay:10.37,2013-05-02 14:34:00,
2013-05-02 10:39:00,69.5,50.1,30.41,SSE,160,0.0,2.0,50,0.00,OVC,OVC,0.00,WeatherDisplay:10.37,2013-05-02 14:39:00,
2013-05-02 10:44:00,68.7,49.8,30.41,ESE,110,0.0,3.0,51,0.00,OVC,OVC,0.00,WeatherDisplay:10.37,2013-05-02 14:44:00,
2013-05-02 10:49:00,68.8,49.4,30.40,East,87,0.0,2.0,50,0.00,OVC,OVC,0.00,WeatherDisplay:10.37,2013-05-02 14:49:00,
2013-05-02 10:54:00,68.9,51.6,30.40,East,87,0.0,1.0,54,0.00,OVC,OVC,0.00,WeatherDisplay:10.37,2013-05-02 14:54:00,
2013-05-02 10:59:00,70.4,51.4,30.40,SSW,193,0.0,2.0,51,0.00,OVC,OVC,0.00,WeatherDisplay:10.37,2013-05-02 14:59:00,
2013-05-02 11:04:00,71.3,51.7,30.40,SE,130,0.0,5.0,50,0.00,OVC,OVC,0.00,WeatherDisplay:10.37,2013-05-02 15:04:00,
2013-05-02 11:09:00,71.3,51.1,30.40,East,87,0.0,1.0,49,0.00,OVC,OVC,0.00,WeatherDisplay:10.37,2013-05-02 15:09:00,
2013-05-02 11:14:00,71.4,52.3,30.40,ENE,71,0.0,3.0,51,0.00,BKN,OVC,0.00,WeatherDisplay:10.37,2013-05-02 15:14:00,
2013-05-02 11:19:00,72.0,51.8,30.40,NE,49,0.0,3.0,49,0.00,BKN,OVC,0.00,WeatherDisplay:10.37,2013-05-02 15:19:00,
2013-05-02 11:24:00,72.6,51.8,30.40,ENE,64,0.0,4.0,48,0.00,BKN,OVC,0.00,WeatherDisplay:10.37,2013-05-02 15:24:00,
2013-05-02 11:29:00,72.0,50.1,30.40,East,85,0.0,3.0,46,0.00,BKN,OVC,0.00,WeatherDisplay:10.37,2013-05-02 15:29:00,
2013-05-02 11:34:00,72.4,50.5,30.39,ESE,103,1.0,3.0,46,0.00,BKN,OVC,0.00,WeatherDisplay:10.37,2013-05-02 15:34:00,
2013-05-02 11:39:00,73.0,51.0,30.39,ENE,78,1.0,3.0,46,0.00,BKN,OVC,0.00,WeatherDisplay:10.37,2013-05-02 15:39:00,
2013-05-02 11:44:00,73.3,51.9,30.39,ENE,64,1.0,4.0,47,0.00,BKN,OVC,0.00,WeatherDisplay:10.37,2013-05-02 15:44:00,
2013-05-02 11:49:00,73.6,52.1,30.39,ENE,69,0.0,2.0,47,0.00,BKN,OVC,0.00,WeatherDisplay:10.37,2013-05-02 15:49:00,
2013-05-02 11:54:00,72.8,50.8,30.39,East,99,1.0,5.0,46,0.00,BKN,OVC,0.00,WeatherDisplay:10.37,2013-05-02 15:54:00,
2013-05-02 11:59:00,72.8,52.0,30.39,SE,124,0.0,4.0,48,0.00,BKN,OVC,0.00,WeatherDisplay:10.37,2013-05-02 15:59:00,
2013-05-02 12:04:00,73.1,51.7,30.39,SSE,149,0.0,3.0,47,0.00,BKN,OVC,0.00,WeatherDisplay:10.37,2013-05-02 16:04:00,
2013-05-02 12:09:00,72.4,51.0,30.38,SE,132,0.0,2.0,47,0.00,BKN,OVC,0.00,WeatherDisplay:10.37,2013-05-02 16:09:00,
2013-05-02 12:14:00,71.7,51.5,30.38,ESE,122,0.0,3.0,49,0.00,BKN,OVC,0.00,WeatherDisplay:10.37,2013-05-02 16:14:00,
2013-05-02 12:19:00,71.5,50.2,30.38,ESE,104,0.0,1.0,47,0.00,BKN,OVC,0.00,WeatherDisplay:10.37,2013-05-02 16:19:00,
2013-05-02 12:24:00,71.4,51.8,30.38,East,80,0.0,4.0,50,0.00,BKN,OVC,0.00,WeatherDisplay:10.37,2013-05-02 16:24:00,
2013-05-02 12:29:00,71.1,51.0,30.38,East,83,0.0,3.0,49,0.00,BKN,OVC,0.00,WeatherDisplay:10.37,2013-05-02 16:29:00,
2013-05-02 12:34:00,70.9,51.3,30.38,SE,126,0.0,2.0,50,0.00,BKN,OVC,0.00,WeatherDisplay:10.37,2013-05-02 16:34:00,
2013-05-02 12:39:00,70.8,50.7,30.38,SSE,154,0.0,2.0,49,0.00,BKN,OVC,0.00,WeatherDisplay:10.37,2013-05-02 16:39:00,
2013-05-02 12:44:00,70.8,50.7,30.38,SE,125,0.0,1.0,49,0.00,BKN,OVC,0.00,WeatherDisplay:10.37,2013-05-02 16:44:00,
2013-05-02 12:49:00,70.8,51.8,30.37,SE,131,0.0,1.0,51,0.00,BKN,OVC,0.00,WeatherDisplay:10.37,2013-05-02 16:49:00,
2013-05-02 12:54:00,70.8,51.8,30.37,East,79,0.0,0.0,51,0.00,BKN,OVC,0.00,WeatherDisplay:10.37,2013-05-02 16:54:00,
2013-05-02 13:04:00,71.1,50.9,30.37,ENE,70,0.0,3.0,49,0.00,BKN,OVC,0.00,WeatherDisplay:10.37,2013-05-02 17:04:00,
2013-05-02 13:09:00,71.5,51.9,30.37,ENE,76,0.0,6.0,50,0.00,BKN,OVC,0.00,WeatherDisplay:10.37,2013-05-02 17:09:00,
2013-05-02 13:19:00,72.6,52.9,30.37,NE,49,0.0,1.0,50,0.00,BKN,OVC,0.00,WeatherDisplay:10.37,2013-05-02 17:19:00,
2013-05-02 13:24:00,72.7,51.9,30.37,ENE,75,0.0,2.0,48,0.00,BKN,OVC,0.00,WeatherDisplay:10.37,2013-05-02 17:24:00,
2013-05-02 13:29:00,72.7,51.9,30.37,East,101,1.0,4.0,48,0.00,BKN,OVC,0.00,WeatherDisplay:10.37,2013-05-02 17:29:00,
2013-05-02 13:34:00,72.8,52.5,30.37,ENE,72,0.0,3.0,49,0.00,BKN,OVC,0.00,WeatherDisplay:10.37,2013-05-02 17:34:00,
2013-05-02 13:39:00,72.7,51.3,30.37,ENE,67,2.0,7.0,47,0.00,BKN,OVC,0.00,WeatherDisplay:10.37,2013-05-02 17:39:00,
2013-05-02 13:44:00,72.8,51.4,30.37,East,101,0.0,5.0,47,0.00,BKN,OVC,0.00,WeatherDisplay:10.37,2013-05-02 17:44:00,
2013-05-02 13:49:00,72.8,51.4,30.37,East,97,0.0,3.0,47,0.00,BKN,OVC,0.00,WeatherDisplay:10.37,2013-05-02 17:49:00,
2013-05-02 13:54:00,72.5,51.1,30.37,ENE,68,0.0,4.0,47,0.00,BKN,OVC,0.00,WeatherDisplay:10.37,2013-05-02 17:54:00,
2013-05-02 13:59:00,73.1,52.2,30.37,ENE,71,0.0,1.0,48,0.00,BKN,OVC,0.00,WeatherDisplay:10.37,2013-05-02 17:59:00,
2013-05-02 14:04:00,72.6,51.8,30.37,NE,51,1.0,7.0,48,0.00,BKN,OVC,0.00,WeatherDisplay:10.37,2013-05-02 18:04:00,
2013-05-02 14:09:00,72.7,51.9,30.37,ENE,57,0.0,4.0,48,0.00,BKN,OVC,0.00,WeatherDisplay:10.37,2013-05-02 18:09:00,
2013-05-02 14:14:00,73.0,51.0,30.37,East,84,2.0,7.0,46,0.00,BKN,OVC,0.00,WeatherDisplay:10.37,2013-05-02 18:14:00,
2013-05-02 14:19:00,74.0,51.9,30.37,East,89,1.0,7.0,46,0.00,BKN,OVC,0.00,WeatherDisplay:10.37,2013-05-02 18:19:00,
2013-05-02 14:24:00,73.7,51.0,30.37,ENE,75,2.0,8.0,45,0.00,BKN,OVC,0.00,WeatherDisplay:10.37,2013-05-02 18:24:00,
2013-05-02 14:29:00,73.5,51.5,30.37,ENE,65,1.0,7.0,46,0.00,BKN,OVC,0.00,WeatherDisplay:10.37,2013-05-02 18:29:00,
2013-05-02 14:34:00,73.0,51.0,30.37,ENE,67,2.0,10.0,46,0.00,BKN,OVC,0.00,WeatherDisplay:10.37,2013-05-02 18:34:00,
2013-05-02 14:39:00,72.4,52.1,30.37,ENE,78,0.0,5.0,49,0.00,BKN,OVC,0.00,WeatherDisplay:10.37,2013-05-02 18:39:00,
2013-05-02 14:44:00,72.5,50.5,30.37,ENE,62,1.0,7.0,46,0.00,BKN,OVC,0.00,WeatherDisplay:10.37,2013-05-02 18:44:00,
2013-05-02 14:49:00,72.7,51.8,30.37,ENE,61,1.0,4.0,48,0.00,BKN,OVC,0.00,WeatherDisplay:10.37,2013-05-02 18:49:00,
2013-05-02 14:54:00,72.9,50.9,30.36,East,95,0.0,3.0,46,0.00,BKN,OVC,0.00,WeatherDisplay:10.37,2013-05-02 18:54:00,
2013-05-02 14:59:00,73.0,51.0,30.36,ESE,117,0.0,1.0,46,0.00,BKN,OVC,0.00,WeatherDisplay:10.37,2013-05-02 18:59:00,
2013-05-02 15:04:00,73.0,52.1,30.36,East,82,0.0,7.0,48,0.00,BKN,OVC,0.00,WeatherDisplay:10.37,2013-05-02 19:04:00,
2013-05-02 15:09:00,73.2,51.7,30.36,ENE,72,1.0,6.0,47,0.00,BKN,OVC,0.00,WeatherDisplay:10.37,2013-05-02 19:09:00,
2013-05-02 15:19:00,74.0,51.9,30.36,ESE,122,1.0,2.0,46,0.00,BKN,OVC,0.00,WeatherDisplay:10.37,2013-05-02 19:19:00,
2013-05-02 15:24:00,74.0,52.5,30.35,ENE,58,0.0,5.0,47,0.00,BKN,OVC,0.00,WeatherDisplay:10.37,2013-05-02 19:24:00,
2013-05-02 15:29:00,74.6,52.4,30.35,NE,53,0.0,5.0,46,0.00,BKN,OVC,0.00,WeatherDisplay:10.37,2013-05-02 19:29:00,
2013-05-02 15:34:00,74.7,52.0,30.35,East,92,1.0,3.0,45,0.00,BKN,OVC,0.00,WeatherDisplay:10.37,2013-05-02 19:34:00,
2013-05-02 15:39:00,75.1,52.3,30.35,ENE,74,0.0,2.0,45,0.00,BKN,OVC,0.00,WeatherDisplay:10.37,2013-05-02 19:39:00,
2013-05-02 15:44:00,75.2,51.8,30.35,ENE,61,0.0,7.0,44,0.00,BKN,OVC,0.00,WeatherDisplay:10.37,2013-05-02 19:44:00,
2013-05-02 15:49:00,75.6,53.3,30.34,ENE,64,1.0,5.0,46,0.00,BKN,OVC,0.00,WeatherDisplay:10.37,2013-05-02 19:49:00,
2013-05-02 15:54:00,75.7,51.6,30.34,ENE,64,1.0,8.0,43,0.00,BKN,OVC,0.00,WeatherDisplay:10.37,2013-05-02 19:54:00,
2013-05-02 15:59:00,75.7,52.8,30.34,East,96,0.0,8.0,45,0.00,BKN,OVC,0.00,WeatherDisplay:10.37,2013-05-02 19:59:00,
2013-05-02 16:04:00,75.9,52.4,30.34,ESE,107,0.0,3.0,44,0.00,BKN,OVC,0.00,WeatherDisplay:10.37,2013-05-02 20:04:00,
2013-05-02 16:09:00,75.8,51.7,30.34,SE,130,1.0,4.0,43,0.00,BKN,OVC,0.00,WeatherDisplay:10.37,2013-05-02 20:09:00,
2013-05-02 16:14:00,75.9,51.2,30.33,ESE,122,0.0,3.0,42,0.00,BKN,OVC,0.00,WeatherDisplay:10.37,2013-05-02 20:14:00,
2013-05-02 16:19:00,76.2,51.4,30.33,SE,136,1.0,7.0,42,0.00,BKN,OVC,0.00,WeatherDisplay:10.37,2013-05-02 20:19:00,
2013-05-02 16:24:00,76.4,51.6,30.33,East,97,1.0,3.0,42,0.00,BKN,OVC,0.00,WeatherDisplay:10.37,2013-05-02 20:24:00,
2013-05-02 16:29:00,76.3,51.5,30.33,East,85,0.0,4.0,42,0.00,BKN,OVC,0.00,WeatherDisplay:10.37,2013-05-02 20:29:00,
2013-05-02 16:34:00,76.1,51.3,30.33,East,80,1.0,5.0,42,0.00,BKN,OVC,0.00,WeatherDisplay:10.37,2013-05-02 20:34:00,
2013-05-02 16:39:00,75.7,50.4,30.33,ENE,60,2.0,7.0,41,0.00,BKN,OVC,0.00,WeatherDisplay:10.37,2013-05-02 20:39:00,
2013-05-02 16:44:00,75.9,50.5,30.33,ENE,63,1.0,5.0,41,0.00,BKN,OVC,0.00,WeatherDisplay:10.37,2013-05-02 20:44:00,
2013-05-02 16:49:00,76.2,51.4,30.33,East,95,1.0,4.0,42,0.00,BKN,OVC,0.00,WeatherDisplay:10.37,2013-05-02 20:49:00,
2013-05-02 16:54:00,76.1,52.0,30.33,East,82,0.0,5.0,43,0.00,BKN,OVC,0.00,WeatherDisplay:10.37,2013-05-02 20:54:00,
2013-05-02 16:59:00,76.3,50.8,30.33,NE,34,3.0,6.0,41,0.00,BKN,OVC,0.00,WeatherDisplay:10.37,2013-05-02 20:59:00,
2013-05-02 17:04:00,75.9,51.2,30.33,NE,54,1.0,7.0,42,0.00,BKN,OVC,0.00,WeatherDisplay:10.37,2013-05-02 21:04:00,
2013-05-02 17:09:00,75.7,51.6,30.33,ENE,59,0.0,5.0,43,0.00,BKN,OVC,0.00,WeatherDisplay:10.37,2013-05-02 21:09:00,
2013-05-02 17:14:00,75.8,50.4,30.33,NE,56,1.0,8.0,41,0.00,FEW,OVC,0.00,WeatherDisplay:10.37,2013-05-02 21:14:00,
2013-05-02 17:19:00,76.1,51.3,30.33,ENE,57,1.0,5.0,42,0.00,FEW,OVC,0.00,WeatherDisplay:10.37,2013-05-02 21:19:00,
2013-05-02 17:24:00,76.0,52.6,30.33,NNE,33,0.0,4.0,44,0.00,FEW,OVC,0.00,WeatherDisplay:10.37,2013-05-02 21:24:00,
2013-05-02 17:29:00,75.9,51.8,30.33,NE,41,1.0,5.0,43,0.00,FEW,OVC,0.00,WeatherDisplay:10.37,2013-05-02 21:29:00,
2013-05-02 17:34:00,75.4,50.7,30.33,NE,55,0.0,5.0,42,0.00,FEW,OVC,0.00,WeatherDisplay:10.37,2013-05-02 21:34:00,
2013-05-02 17:39:00,75.2,50.5,30.33,ENE,59,0.0,3.0,42,0.00,FEW,OVC,0.00,WeatherDisplay:10.37,2013-05-02 21:39:00,
2013-05-02 17:44:00,75.4,50.7,30.33,ENE,74,0.0,2.0,42,0.00,FEW,OVC,0.00,WeatherDisplay:10.37,2013-05-02 21:44:00,
2013-05-02 17:49:00,75.4,51.9,30.33,ENE,72,0.0,5.0,44,0.00,FEW,OVC,0.00,WeatherDisplay:10.37,2013-05-02 21:49:00,
2013-05-02 17:54:00,75.2,50.5,30.33,ENE,73,0.0,10.0,42,0.00,FEW,OVC,0.00,WeatherDisplay:10.37,2013-05-02 21:54:00,
2013-05-02 17:59:00,75.0,49.7,30.33,ENE,66,2.0,5.0,41,0.00,FEW,OVC,0.00,WeatherDisplay:10.37,2013-05-02 21:59:00,
2013-05-02 18:04:00,75.0,50.4,30.33,East,86,2.0,8.0,42,0.00,FEW,OVC,0.00,WeatherDisplay:10.37,2013-05-02 22:04:00,
2013-05-02 18:09:00,74.9,50.3,30.33,NE,53,2.0,7.0,42,0.00,FEW,OVC,0.00,WeatherDisplay:10.37,2013-05-02 22:09:00,
2013-05-02 18:14:00,74.6,49.3,30.33,ENE,65,3.0,8.0,41,0.00,BKN,OVC,0.00,WeatherDisplay:10.37,2013-05-02 22:14:00,
2013-05-02 18:19:00,74.1,48.8,30.33,ENE,65,5.0,12.0,41,0.00,BKN,OVC,0.00,WeatherDisplay:10.37,2013-05-02 22:19:00,
2013-05-02 18:24:00,73.4,48.9,30.33,ENE,78,2.0,8.0,42,0.00,BKN,OVC,0.00,WeatherDisplay:10.37,2013-05-02 22:24:00,
2013-05-02 18:34:00,72.8,48.4,30.33,ENE,60,0.0,7.0,42,0.00,BKN,OVC,0.00,WeatherDisplay:10.37,2013-05-02 22:34:00,
2013-05-02 18:39:00,72.6,48.2,30.33,NE,41,2.0,8.0,42,0.00,BKN,OVC,0.00,WeatherDisplay:10.37,2013-05-02 22:39:00,
2013-05-02 18:44:00,72.2,47.9,30.33,NE,49,2.0,10.0,42,0.00,BKN,OVC,0.00,WeatherDisplay:10.37,2013-05-02 22:44:00,
2013-05-02 18:49:00,71.9,47.6,30.33,ENE,66,1.0,9.0,42,0.00,BKN,OVC,0.00,WeatherDisplay:10.37,2013-05-02 22:49:00,
2013-05-02 18:54:00,71.6,47.3,30.33,ENE,64,5.0,10.0,42,0.00,BKN,OVC,0.00,WeatherDisplay:10.37,2013-05-02 22:54:00,
2013-05-02 18:59:00,71.4,47.7,30.33,NE,40,1.0,9.0,43,0.00,BKN,OVC,0.00,WeatherDisplay:10.37,2013-05-02 22:59:00,
2013-05-02 19:04:00,71.0,48.0,30.33,NE,52,0.0,5.0,44,0.00,BKN,OVC,0.00,WeatherDisplay:10.37,2013-05-02 23:04:00,
2013-05-02 19:09:00,70.8,47.8,30.34,NE,53,5.0,13.0,44,0.00,BKN,OVC,0.00,WeatherDisplay:10.37,2013-05-02 23:09:00,
2013-05-02 19:14:00,70.4,47.5,30.34,ENE,62,1.0,5.0,44,0.00,SCT,OVC,0.00,WeatherDisplay:10.37,2013-05-02 23:14:00,
2013-05-02 19:19:00,70.0,47.7,30.34,ENE,57,1.0,9.0,45,0.00,SCT,OVC,0.00,WeatherDisplay:10.37,2013-05-02 23:19:00,
2013-05-02 19:24:00,69.7,48.0,30.34,ENE,67,3.0,9.0,46,0.00,SCT,OVC,0.00,WeatherDisplay:10.37,2013-05-02 23:24:00,
2013-05-02 19:29:00,69.3,48.2,30.34,ENE,57,2.0,9.0,47,0.00,SCT,OVC,0.00,WeatherDisplay:10.37,2013-05-02 23:29:00,
2013-05-02 19:34:00,68.7,48.7,30.34,ENE,57,0.0,10.0,49,0.00,SCT,OVC,0.00,WeatherDisplay:10.37,2013-05-02 23:34:00,
2013-05-02 19:39:00,68.2,48.3,30.34,NE,48,1.0,8.0,49,0.00,SCT,OVC,0.00,WeatherDisplay:10.37,2013-05-02 23:39:00,
2013-05-02 19:44:00,67.9,48.0,30.35,NE,50,2.0,8.0,49,0.00,SCT,OVC,0.00,WeatherDisplay:10.37,2013-05-02 23:44:00,
2013-05-02 19:49:00,67.6,48.3,30.35,NE,51,5.0,10.0,50,0.00,SCT,OVC,0.00,WeatherDisplay:10.37,2013-05-02 23:49:00,
2013-05-02 19:54:00,67.3,48.6,30.35,NE,46,0.0,4.0,51,0.00,SCT,OVC,0.00,WeatherDisplay:10.37,2013-05-02 23:54:00,
2013-05-02 19:59:00,66.9,48.7,30.35,ENE,58,1.0,9.0,52,0.00,SCT,OVC,0.00,WeatherDisplay:10.37,2013-05-02 23:59:00,
2013-05-02 20:04:00,66.4,48.7,30.35,ENE,70,0.0,3.0,53,0.00,SCT,OVC,0.00,WeatherDisplay:10.37,2013-05-03 00:04:00,
2013-05-02 20:09:00,66.1,48.5,30.35,ENE,74,1.0,9.0,53,0.00,SCT,OVC,0.00,WeatherDisplay:10.37,2013-05-03 00:09:00,
2013-05-02 20:14:00,66.1,49.0,30.35,ENE,67,0.0,3.0,54,0.00,SCT,OVC,0.00,WeatherDisplay:10.37,2013-05-03 00:14:00,
2013-05-02 20:19:00,65.7,49.5,30.35,NE,49,1.0,5.0,56,0.00,SCT,OVC,0.00,WeatherDisplay:10.37,2013-05-03 00:19:00,
2013-05-02 20:24:00,65.6,49.5,30.35,NE,41,0.0,5.0,56,0.00,SCT,OVC,0.00,WeatherDisplay:10.37,2013-05-03 00:24:00,
2013-05-02 20:29:00,65.8,49.2,30.35,NE,49,0.0,5.0,55,0.00,SCT,OVC,0.00,WeatherDisplay:10.37,2013-05-03 00:29:00,
2013-05-02 20:34:00,65.8,49.2,30.35,ENE,59,0.0,4.0,55,0.00,SCT,OVC,0.00,WeatherDisplay:10.37,2013-05-03 00:34:00,
2013-05-02 20:39:00,65.8,49.6,30.35,NE,49,0.0,5.0,56,0.00,SCT,OVC,0.00,WeatherDisplay:10.37,2013-05-03 00:39:00,
2013-05-02 20:44:00,65.5,49.4,30.35,NE,48,0.0,1.0,56,0.00,SCT,OVC,0.00,WeatherDisplay:10.37,2013-05-03 00:44:00,
2013-05-02 20:49:00,65.3,49.7,30.35,NE,42,1.0,7.0,57,0.00,SCT,OVC,0.00,WeatherDisplay:10.37,2013-05-03 00:49:00,
2013-05-02 20:54:00,65.1,49.5,30.35,NE,42,0.0,3.0,57,0.00,SCT,OVC,0.00,WeatherDisplay:10.37,2013-05-03 00:54:00,
2013-05-02 20:59:00,64.8,49.2,30.35,NE,39,1.0,10.0,57,0.00,SCT,OVC,0.00,WeatherDisplay:10.37,2013-05-03 00:59:00,
2013-05-02 21:04:00,64.8,49.7,30.35,NE,43,1.0,6.0,58,0.00,SCT,OVC,0.00,WeatherDisplay:10.37,2013-05-03 01:04:00,
2013-05-02 21:09:00,64.7,49.6,30.36,ENE,76,0.0,12.0,58,0.00,SCT,OVC,0.00,WeatherDisplay:10.37,2013-05-03 01:09:00,
2013-05-02 21:14:00,64.4,49.8,30.36,ENE,66,1.0,12.0,59,0.00,BKN,OVC,0.00,WeatherDisplay:10.37,2013-05-03 01:14:00,
2013-05-02 21:19:00,64.2,50.0,30.36,NE,45,1.0,8.0,60,0.00,BKN,OVC,0.00,WeatherDisplay:10.37,2013-05-03 01:19:00,
2013-05-02 21:24:00,63.8,49.7,30.36,ENE,64,2.0,8.0,60,0.00,BKN,OVC,0.00,WeatherDisplay:10.37,2013-05-03 01:24:00,
2013-05-02 21:29:00,63.4,49.3,30.36,ENE,57,2.0,5.0,60,0.00,BKN,OVC,0.00,WeatherDisplay:10.37,2013-05-03 01:29:00,
2013-05-02 21:34:00,63.0,49.3,30.36,NE,50,0.0,7.0,61,0.00,BKN,OVC,0.00,WeatherDisplay:10.37,2013-05-03 01:34:00,
2013-05-02 21:39:00,62.5,49.3,30.36,ENE,59,0.0,3.0,62,0.00,BKN,OVC,0.00,WeatherDisplay:10.37,2013-05-03 01:39:00,
2013-05-02 21:44:00,62.3,49.1,30.36,ENE,63,0.0,5.0,62,0.00,BKN,OVC,0.00,WeatherDisplay:10.37,2013-05-03 01:44:00,
2013-05-02 21:49:00,61.9,49.6,30.36,NE,47,0.0,3.0,64,0.00,BKN,OVC,0.00,WeatherDisplay:10.37,2013-05-03 01:49:00,
2013-05-02 21:54:00,61.4,49.1,30.36,NE,46,1.0,4.0,64,0.00,BKN,OVC,0.00,WeatherDisplay:10.37,2013-05-03 01:54:00,
2013-05-02 21:59:00,61.0,48.7,30.37,NE,56,1.0,7.0,64,0.00,BKN,OVC,0.00,WeatherDisplay:10.37,2013-05-03 01:59:00,
2013-05-02 22:04:00,60.7,48.4,30.37,NE,48,0.0,8.0,64,0.00,BKN,OVC,0.00,WeatherDisplay:10.37,2013-05-03 02:04:00,
2013-05-02 22:09:00,60.4,48.1,30.37,NNE,27,0.0,4.0,64,0.00,BKN,OVC,0.00,WeatherDisplay:10.37,2013-05-03 02:09:00,
2013-05-02 22:14:00,60.0,48.2,30.37,ENE,60,0.0,1.0,65,0.00,SCT,OVC,0.00,WeatherDisplay:10.37,2013-05-03 02:14:00,
2013-05-02 22:19:00,59.6,48.3,30.37,ENE,72,0.0,2.0,66,0.00,SCT,OVC,0.00,WeatherDisplay:10.37,2013-05-03 02:19:00,
2013-05-02 22:24:00,59.3,47.9,30.36,NNE,28,0.0,1.0,66,0.00,SCT,OVC,0.00,WeatherDisplay:10.37,2013-05-03 02:24:00,
2013-05-02 22:29:00,59.1,47.7,30.36,NNE,31,1.0,2.0,66,0.00,SCT,OVC,0.00,WeatherDisplay:10.37,2013-05-03 02:29:00,
2013-05-02 22:34:00,58.9,48.0,30.37,NE,47,0.0,6.0,67,0.00,SCT,OVC,0.00,WeatherDisplay:10.37,2013-05-03 02:34:00,
2013-05-02 22:39:00,58.8,47.9,30.37,NE,44,0.0,3.0,67,0.00,SCT,OVC,0.00,WeatherDisplay:10.37,2013-05-03 02:39:00,
2013-05-02 22:49:00,58.7,47.8,30.36,ENE,59,0.0,6.0,67,0.00,SCT,OVC,0.00,WeatherDisplay:10.37,2013-05-03 02:49:00,
2013-05-02 22:54:00,58.7,47.4,30.36,NE,47,0.0,6.0,66,0.00,SCT,OVC,0.00,WeatherDisplay:10.37,2013-05-03 02:54:00,
2013-05-02 22:59:00,58.6,47.7,30.36,ENE,57,1.0,5.0,67,0.00,SCT,OVC,0.00,WeatherDisplay:10.37,2013-05-03 02:59:00,
2013-05-02 23:04:00,58.3,47.8,30.36,ENE,67,1.0,5.0,68,0.00,SCT,OVC,0.00,WeatherDisplay:10.37,2013-05-03 03:04:00,
2013-05-02 23:09:00,58.1,47.6,30.36,ENE,60,1.0,6.0,68,0.00,SCT,OVC,0.00,WeatherDisplay:10.37,2013-05-03 03:09:00,
2013-05-02 23:14:00,58.1,47.6,30.36,ENE,69,0.0,7.0,68,0.00,FEW,OVC,0.00,WeatherDisplay:10.37,2013-05-03 03:14:00,
2013-05-02 23:19:00,58.0,47.5,30.36,NE,42,1.0,7.0,68,0.00,FEW,OVC,0.00,WeatherDisplay:10.37,2013-05-03 03:19:00,
2013-05-02 23:24:00,58.0,47.5,30.36,NE,37,0.0,3.0,68,0.00,FEW,OVC,0.00,WeatherDisplay:10.37,2013-05-03 03:24:00,
2013-05-02 23:29:00,57.7,47.6,30.36,NE,46,0.0,4.0,69,0.00,FEW,OVC,0.00,WeatherDisplay:10.37,2013-05-03 03:29:00,
2013-05-02 23:34:00,57.6,47.5,30.36,NE,36,0.0,3.0,69,0.00,FEW,OVC,0.00,WeatherDisplay:10.37,2013-05-03 03:34:00,
2013-05-02 23:39:00,57.6,47.1,30.37,NE,38,1.0,6.0,68,0.00,FEW,OVC,0.00,WeatherDisplay:10.37,2013-05-03 03:39:00,
2013-05-02 23:44:00,57.5,47.0,30.36,NE,43,1.0,3.0,68,0.00,FEW,OVC,0.00,WeatherDisplay:10.37,2013-05-03 03:44:00,
2013-05-02 23:49:00,57.3,47.2,30.37,NE,41,1.0,5.0,69,0.00,FEW,OVC,0.00,WeatherDisplay:10.37,2013-05-03 03:49:00,
2013-05-02 23:54:00,57.0,47.0,30.37,NE,45,0.0,5.0,69,0.00,FEW,OVC,0.00,WeatherDisplay:10.37,2013-05-03 03:54:00,
2013-05-02 23:59:00,56.8,46.7,30.37,NE,56,0.0,3.0,69,0.00,FEW,OVC,0.00,WeatherDisplay:10.37,2013-05-03 03:59:00,